Weather History for Shawnee, OK

Change the Weather History Date:

Thursday, January 9, 2014

  Actual Average (KTIK) Record (KTIK)
Temperature  
Mean Temperature 38 °F -  
Max Temperature 41 °F 45 °F 74 °F (2009)
Min Temperature 35 °F 27 °F 12 °F (1999)
Degree Days  
Heating Degree Days 27    
Moisture  
Dew Point 37 °F    
Average Humidity 100    
Maximum Humidity 100    
Minimum Humidity 100    
Precipitation  
Precipitation 0.01 in - - ()
Sea Level Pressure  
Sea Level Pressure 30.15 in    
Wind  
Wind Speed 3 mph (SSE)    
Max Wind Speed 7 mph    
Max Gust Speed -    
Visibility 2 miles    
Events Fog    
Averages and records for this station are not official NWS values.
T = Trace of Precipitation, MM = Missing Value Source: NWS Daily Summary

Daily Weather History Graph

Daily Weather History Graph

Search for Another Location

Airport:

Trip Planner

Search our weather history database for the weather conditions in past years. The results will help you decide how hot, cold, wet, or windy it might be!

Date:

Astronomy

Jan. 09, 2014 Rise Set
Actual Time 7:37 AM CST 5:33 PM CST
Civil Twilight 7:09 AM CST 6:00 PM CST
Nautical Twilight 6:37 AM CST 6:32 PM CST
Astronomical Twilight 6:07 AM CST 7:03 PM CST
Moon 12:56 PM CST (1/9) 1:51 AM CST (1/9)
Length of Visible Light 10h 51m
Length of Day
9h 55m
Waxing Gibbous, 66% of the Moon is Illuminated
Jan 9
Waxing Gibbous
Jan 15
Full
Jan 23
Last Quarter
Jan 30
New
Feb 6
First Quarter

Hourly Weather History & Observations

Time (CST) Temp. Windchill Dew Point Humidity Pressure Visibility Wind Dir Wind Speed Gust Speed Precip Events Conditions
12:15 AM 35.6 °F 32.8 °F 35.6 °F 100% 30.24 in 5.0 mi ESE 3.5 mph - N/A   Overcast
12:35 AM 35.6 °F - 35.6 °F 100% 30.23 in 5.0 mi Calm Calm - N/A   Overcast
12:55 AM 35.6 °F 32.8 °F 35.6 °F 100% 30.23 in 7.0 mi ESE 3.5 mph - N/A   Overcast
1:15 AM 35.6 °F 32.8 °F 35.6 °F 100% 30.22 in 5.0 mi East 3.5 mph - N/A   Overcast
1:35 AM 35.6 °F - 35.6 °F 100% 30.22 in 2.0 mi Calm Calm - N/A   Overcast
1:55 AM 35.6 °F 32.8 °F 35.6 °F 100% 30.22 in 2.5 mi East 3.5 mph - N/A   Overcast
2:15 AM 35.6 °F - 35.6 °F 100% 30.22 in 3.0 mi Calm Calm - N/A   Overcast
2:35 AM 35.6 °F - 35.6 °F 100% 30.22 in 4.0 mi Calm Calm - 0.01 in   Overcast
2:55 AM 35.6 °F - 35.6 °F 100% 30.22 in 2.0 mi Calm Calm - 0.01 in   Overcast
3:15 AM 35.6 °F - 35.6 °F 100% 30.22 in 2.0 mi Calm Calm - N/A   Overcast
3:35 AM 35.6 °F - 35.6 °F 100% 30.22 in 2.0 mi Calm Calm - N/A   Overcast
3:55 AM 35.6 °F - 35.6 °F 100% 30.22 in 1.8 mi Calm Calm - N/A   Overcast
4:15 AM 35.6 °F - 35.6 °F 100% 30.21 in 2.0 mi Calm Calm - N/A   Overcast
4:35 AM 35.6 °F 32.8 °F 35.6 °F 100% 30.20 in 1.8 mi East 3.5 mph - N/A   Overcast
4:55 AM 35.6 °F - 35.6 °F 100% 30.20 in 2.0 mi Calm Calm - N/A   Overcast
5:15 AM 35.6 °F - 35.6 °F 100% 30.20 in 2.0 mi Calm Calm - N/A   Overcast
5:35 AM 35.6 °F - 35.6 °F 100% 30.20 in 1.8 mi Calm Calm - N/A   Overcast
5:55 AM 35.6 °F - 35.6 °F 100% 30.20 in 1.8 mi Calm Calm - N/A   Overcast
6:15 AM 35.6 °F - 35.6 °F 100% 30.20 in 1.5 mi Calm Calm - N/A   Overcast
6:35 AM 35.6 °F - 35.6 °F 100% 30.20 in 1.8 mi Calm Calm - N/A   Overcast
6:55 AM 35.6 °F 32.8 °F 35.6 °F 100% 30.20 in 1.8 mi ESE 3.5 mph - N/A   Overcast
7:15 AM 35.6 °F - 35.6 °F 100% 30.21 in 1.5 mi Calm Calm - N/A   Overcast
7:35 AM 35.6 °F - 35.6 °F 100% 30.22 in 1.8 mi Calm Calm - N/A   Overcast
7:55 AM 35.6 °F - 35.6 °F 100% 30.22 in 1.0 mi Calm Calm - N/A   Overcast
8:15 AM 35.6 °F - 35.6 °F 100% 30.22 in 1.0 mi Calm Calm - N/A   Overcast
8:35 AM 35.6 °F - 35.6 °F 100% 30.23 in 1.0 mi Calm Calm - N/A   Overcast
8:55 AM 35.6 °F 32.8 °F 35.6 °F 100% 30.23 in 1.2 mi SE 3.5 mph - N/A   Overcast
9:15 AM 35.6 °F - 35.6 °F 100% 30.23 in 1.5 mi Calm Calm - N/A   Overcast
9:35 AM 35.6 °F 31.7 °F 35.6 °F 100% 30.22 in 3.0 mi SE 4.6 mph - N/A   Overcast
9:55 AM 35.6 °F 31.7 °F 35.6 °F 100% 30.23 in 4.0 mi SSE 4.6 mph - N/A   Overcast
10:15 AM 37.4 °F 32.8 °F 37.4 °F 100% 30.23 in 5.0 mi SSE 5.8 mph - N/A   Overcast
10:35 AM 37.4 °F 34.9 °F 37.4 °F 100% 30.24 in 5.0 mi SSE 3.5 mph - N/A   Overcast
10:55 AM 37.4 °F 32.8 °F 37.4 °F 100% 30.23 in 5.0 mi South 5.8 mph - N/A   Overcast
11:15 AM 37.4 °F 33.8 °F 37.4 °F 100% 30.21 in 5.0 mi SSE 4.6 mph - N/A   Overcast
11:35 AM 37.4 °F 34.9 °F 37.4 °F 100% 30.20 in 5.0 mi SSE 3.5 mph - N/A   Overcast
11:55 AM 37.4 °F 34.9 °F 37.4 °F 100% 30.19 in 5.0 mi SSE 3.5 mph - N/A   Overcast
12:15 PM 37.4 °F 34.9 °F 37.4 °F 100% 30.17 in 3.0 mi SE 3.5 mph - N/A   Overcast
12:35 PM 37.4 °F 33.8 °F 37.4 °F 100% 30.16 in 2.5 mi SSE 4.6 mph - N/A   Overcast
12:55 PM 37.4 °F 34.9 °F 37.4 °F 100% 30.16 in 2.0 mi SSE 3.5 mph - N/A   Overcast
1:15 PM 37.4 °F 33.8 °F 37.4 °F 100% 30.14 in 3.0 mi South 4.6 mph - N/A   Overcast
1:35 PM 39.2 °F 35.0 °F 39.2 °F 100% 30.14 in 3.0 mi SSE 5.8 mph - N/A   Overcast
1:55 PM 39.2 °F 35.0 °F 39.2 °F 100% 30.12 in 2.5 mi SSE 5.8 mph - N/A   Overcast
2:35 PM 39.2 °F 35.9 °F 39.2 °F 100% 30.11 in 2.0 mi SSE 4.6 mph - N/A   Overcast
2:55 PM 39.2 °F 35.9 °F 39.2 °F 100% 30.11 in 1.0 mi SSE 4.6 mph - N/A   Overcast
3:15 PM 39.2 °F 35.9 °F 39.2 °F 100% 30.10 in 2.0 mi South 4.6 mph - N/A   Overcast
3:35 PM 39.2 °F 35.9 °F 39.2 °F 100% 30.10 in 2.0 mi South 4.6 mph - N/A   Overcast
3:55 PM 39.2 °F 37.0 °F 39.2 °F 100% 30.09 in 2.5 mi SSE 3.5 mph - N/A   Overcast
4:15 PM 39.2 °F 35.9 °F 39.2 °F 100% 30.09 in 0.5 mi SE 4.6 mph - N/A Fog Fog
5:35 PM 37.4 °F 34.9 °F 37.4 °F 100% 30.07 in 0.2 mi SE 3.5 mph - N/A Fog Fog
5:55 PM 37.4 °F 32.8 °F 37.4 °F 100% 30.07 in 0.5 mi SE 5.8 mph - N/A Fog Fog
6:15 PM 37.4 °F 34.9 °F 37.4 °F 100% 30.07 in 0.5 mi SE 3.5 mph - N/A Fog Fog
6:35 PM 37.4 °F 32.8 °F 37.4 °F 100% 30.06 in 0.5 mi SE 5.8 mph - N/A Fog Fog
6:55 PM 37.4 °F 34.9 °F 37.4 °F 100% 30.07 in 0.5 mi SSE 3.5 mph - N/A Fog Fog
7:15 PM 37.4 °F 32.8 °F 37.4 °F 100% 30.06 in 0.5 mi SE 5.8 mph - N/A Fog Fog
7:35 PM 37.4 °F 32.8 °F 37.4 °F 100% 30.07 in 0.8 mi SSE 5.8 mph - N/A   Overcast
7:55 PM 37.4 °F 32.1 °F 37.4 °F 100% 30.07 in 1.0 mi SSE 6.9 mph - N/A   Overcast
8:15 PM 37.4 °F 32.8 °F 37.4 °F 100% 30.07 in 1.5 mi South 5.8 mph - N/A   Overcast
8:35 PM 37.4 °F 32.1 °F 37.4 °F 100% 30.06 in 1.8 mi SSE 6.9 mph - N/A   Overcast
8:55 PM 37.4 °F 32.8 °F 37.4 °F 100% 30.06 in 2.0 mi SSE 5.8 mph - N/A   Overcast
9:15 PM 39.2 °F 35.0 °F 39.2 °F 100% 30.06 in 2.0 mi SSE 5.8 mph - N/A   Overcast
9:35 PM 39.2 °F 35.0 °F 39.2 °F 100% 30.06 in 1.8 mi South 5.8 mph - N/A   Overcast
9:55 PM 39.2 °F 35.0 °F 39.2 °F 100% 30.05 in 1.5 mi SSE 5.8 mph - N/A   Overcast
10:15 PM 39.2 °F 35.9 °F 39.2 °F 100% 30.04 in 1.2 mi South 4.6 mph - N/A   Overcast
10:35 PM 39.2 °F 35.0 °F 39.2 °F 100% 30.04 in 1.2 mi South 5.8 mph - N/A   Overcast
10:55 PM 41.0 °F 36.4 °F 41.0 °F 100% 30.03 in 1.2 mi SSE 6.9 mph - N/A   Overcast
11:15 PM 41.0 °F 36.4 °F 41.0 °F 100% 30.02 in 1.2 mi South 6.9 mph - N/A   Overcast
11:35 PM 41.0 °F 37.1 °F 41.0 °F 100% 30.01 in 1.2 mi South 5.8 mph - N/A   Overcast
11:55 PM 41.0 °F - 41.0 °F 100% 30.00 in 1.2 mi Calm Calm - N/A   Overcast